FDX423 KSAN-KOAK

Flight info

Callsign FDX423
Flight time 1h 4m
Altitude 36000
Route PADRZ2 OROSZ COREZ RGOOD EMZOH4
Aircraft B738/M-SDE2E3FGHIRWXY/LB1

Departure

Time 2026-05-06 02:14
Airport San Diego International Airport (KSAN)

Arrival

Time 2026-05-06 03:18
Airport San Francisco Bay Oakland International Airport (KOAK)
Time Latitude Longitude Altitude Speed Heading
2026-05-06 01:48 32.73734 -117.18564 21 ft 0 kts 355°
2026-05-06 02:03 32.73730 -117.18564 19 ft 2 kts 355°
2026-05-06 02:03 32.73714 -117.18562 14 ft 2 kts 355°
2026-05-06 02:03 32.73698 -117.18561 23 ft 2 kts 355°
2026-05-06 02:04 32.73681 -117.18560 23 ft 2 kts 357°
2026-05-06 02:04 32.73669 -117.18568 23 ft 2 kts 75°
2026-05-06 02:04 32.73670 -117.18587 23 ft 2 kts 132°
2026-05-06 02:04 32.73680 -117.18596 25 ft 0 kts 142°
2026-05-06 02:06 32.73678 -117.18594 25 ft 2 kts 142°
2026-05-06 02:07 32.73654 -117.18572 24 ft 8 kts 143°
2026-05-06 02:07 32.73603 -117.18528 21 ft 10 kts 143°
2026-05-06 02:07 32.73550 -117.18480 21 ft 9 kts 143°
2026-05-06 02:07 32.73507 -117.18444 21 ft 0 kts 144°
2026-05-06 02:08 32.73507 -117.18443 21 ft 1 kts 144°
2026-05-06 02:09 32.73494 -117.18433 21 ft 4 kts 145°
2026-05-06 02:09 32.73469 -117.18411 22 ft 5 kts 145°
2026-05-06 02:09 32.73441 -117.18390 20 ft 6 kts 155°
2026-05-06 02:09 32.73391 -117.18396 20 ft 9 kts 197°
2026-05-06 02:10 32.73331 -117.18379 20 ft 10 kts 125°
2026-05-06 02:10 32.73309 -117.18300 19 ft 11 kts 105°
2026-05-06 02:10 32.73284 -117.18193 21 ft 16 kts 106°
2026-05-06 02:10 32.73253 -117.18066 20 ft 16 kts 106°
2026-05-06 02:11 32.73223 -117.17944 17 ft 15 kts 106°
2026-05-06 02:11 32.73194 -117.17826 19 ft 15 kts 106°
2026-05-06 02:11 32.73166 -117.17708 20 ft 15 kts 106°
2026-05-06 02:11 32.73140 -117.17602 18 ft 10 kts 112°
2026-05-06 02:12 32.73112 -117.17564 18 ft 0 kts 143°
2026-05-06 02:12 32.73110 -117.17562 18 ft 2 kts 143°
2026-05-06 02:12 32.73080 -117.17536 18 ft 9 kts 147°
2026-05-06 02:13 32.73013 -117.17536 20 ft 11 kts 245°
2026-05-06 02:13 32.73034 -117.17638 19 ft 19 kts 287°
2026-05-06 02:13 32.73133 -117.18044 17 ft 84 kts 286°
2026-05-06 02:13 32.73346 -117.18926 21 ft 136 kts 286°
2026-05-06 02:14 32.73633 -117.20102 371 ft 150 kts 287°
2026-05-06 02:14 32.73974 -117.21270 977 ft 155 kts 299°
2026-05-06 02:14 32.74550 -117.22320 1578 ft 153 kts 302°
2026-05-06 02:14 32.75158 -117.23416 1968 ft 170 kts 302°
2026-05-06 02:15 32.75865 -117.24675 2203 ft 195 kts 302°
2026-05-06 02:15 32.76635 -117.26035 2656 ft 202 kts 303°
2026-05-06 02:15 32.77441 -117.27451 3173 ft 209 kts 303°
2026-05-06 02:15 32.78255 -117.28879 3881 ft 210 kts 303°
2026-05-06 02:16 32.79088 -117.30341 4418 ft 219 kts 303°
2026-05-06 02:16 32.79990 -117.31913 4665 ft 242 kts 305°
2026-05-06 02:16 32.81032 -117.33563 5077 ft 256 kts 307°
2026-05-06 02:16 32.82121 -117.35236 5844 ft 255 kts 307°
2026-05-06 02:17 32.83225 -117.36928 6434 ft 263 kts 308°
2026-05-06 02:17 32.84362 -117.38678 7046 ft 268 kts 308°
2026-05-06 02:17 32.85504 -117.40441 7748 ft 270 kts 308°
2026-05-06 02:17 32.86656 -117.42223 8509 ft 270 kts 308°
2026-05-06 02:18 32.87809 -117.44010 9233 ft 275 kts 308°
2026-05-06 02:18 32.88972 -117.45815 10034 ft 275 kts 308°
2026-05-06 02:18 32.90159 -117.47659 10444 ft 290 kts 308°
2026-05-06 02:18 32.91436 -117.49643 10602 ft 313 kts 308°
2026-05-06 02:19 32.92805 -117.51771 10795 ft 333 kts 308°
2026-05-06 02:19 32.94231 -117.53992 11255 ft 343 kts 308°
2026-05-06 02:19 32.95662 -117.56223 11949 ft 344 kts 308°
2026-05-06 02:19 32.97121 -117.58499 12611 ft 349 kts 308°
2026-05-06 02:20 33.00108 -117.63162 13940 ft 357 kts 308°
2026-05-06 02:20 33.01608 -117.65508 14682 ft 359 kts 308°
2026-05-06 02:20 33.03126 -117.67881 15361 ft 361 kts 308°
2026-05-06 02:21 33.04664 -117.70286 15908 ft 369 kts 308°
2026-05-06 02:21 33.06231 -117.72721 16550 ft 372 kts 310°
2026-05-06 02:21 33.08048 -117.74938 17196 ft 374 kts 319°
2026-05-06 02:21 33.10048 -117.76924 17965 ft 375 kts 322°
2026-05-06 02:22 33.12099 -117.78887 18497 ft 381 kts 321°
2026-05-06 02:22 33.14167 -117.80901 19014 ft 385 kts 321°
2026-05-06 02:22 33.16218 -117.82954 19709 ft 384 kts 320°
2026-05-06 02:22 33.18262 -117.85032 20224 ft 389 kts 319°
2026-05-06 02:23 33.20333 -117.87142 20716 ft 393 kts 320°
2026-05-06 02:23 33.22443 -117.89226 21294 ft 395 kts 321°
2026-05-06 02:23 33.24586 -117.91306 21789 ft 399 kts 321°
2026-05-06 02:23 33.26754 -117.93403 22306 ft 402 kts 321°
2026-05-06 02:24 33.28925 -117.95507 22896 ft 403 kts 321°
2026-05-06 02:24 33.31116 -117.97637 23325 ft 408 kts 321°
2026-05-06 02:24 33.33317 -117.99784 23805 ft 410 kts 321°
2026-05-06 02:24 33.35527 -118.01944 24244 ft 412 kts 320°
2026-05-06 02:25 33.37752 -118.04123 24615 ft 415 kts 320°
2026-05-06 02:25 33.39993 -118.06319 24935 ft 420 kts 322°
2026-05-06 02:25 33.42274 -118.08556 25235 ft 424 kts 321°
2026-05-06 02:25 33.44538 -118.10777 25885 ft 419 kts 321°
2026-05-06 02:26 33.46795 -118.12993 26293 ft 422 kts 321°
2026-05-06 02:26 33.49077 -118.15236 26532 ft 427 kts 321°
2026-05-06 02:26 33.51383 -118.17504 26882 ft 429 kts 321°
2026-05-06 02:26 33.53696 -118.19780 27249 ft 432 kts 321°
2026-05-06 02:27 33.56025 -118.22072 27582 ft 434 kts 321°
2026-05-06 02:27 33.58443 -118.24241 27909 ft 436 kts 330°
2026-05-06 02:27 33.61184 -118.25852 28033 ft 442 kts 337°
2026-05-06 02:27 33.64020 -118.27309 28317 ft 444 kts 338°
2026-05-06 02:28 33.66867 -118.28776 28678 ft 445 kts 337°
2026-05-06 02:28 33.69702 -118.30285 29030 ft 447 kts 336°
2026-05-06 02:28 33.72540 -118.31838 29337 ft 449 kts 336°
2026-05-06 02:28 33.75380 -118.33410 29683 ft 450 kts 336°
2026-05-06 02:29 33.80984 -118.36356 30407 ft 449 kts 340°
2026-05-06 02:29 33.83883 -118.37786 30642 ft 451 kts 340°
2026-05-06 02:29 33.86778 -118.39213 31047 ft 448 kts 339°
2026-05-06 02:30 33.89647 -118.40643 31479 ft 445 kts 339°
2026-05-06 02:30 33.92500 -118.42078 31838 ft 444 kts 339°
2026-05-06 02:30 33.95346 -118.43517 32138 ft 444 kts 338°
2026-05-06 02:30 33.98195 -118.44960 32446 ft 444 kts 338°
2026-05-06 02:31 34.00998 -118.46382 32787 ft 443 kts 340°
2026-05-06 02:31 34.03869 -118.47839 33127 ft 441 kts 339°
2026-05-06 02:31 34.06663 -118.49258 33459 ft 441 kts 339°
2026-05-06 02:31 34.09484 -118.50691 33784 ft 440 kts 339°
2026-05-06 02:32 34.12300 -118.52124 34092 ft 439 kts 339°
2026-05-06 02:32 34.15106 -118.53552 34351 ft 438 kts 338°
2026-05-06 02:32 34.17918 -118.54984 34557 ft 439 kts 338°
2026-05-06 02:32 34.20734 -118.56420 34772 ft 439 kts 339°
2026-05-06 02:33 34.23544 -118.57854 35053 ft 437 kts 339°
2026-05-06 02:33 34.25437 -118.58820 35208 ft 437 kts 339°
2026-05-06 02:33 34.31973 -118.62153 35632 ft 439 kts 339°
2026-05-06 02:34 34.34805 -118.63548 35862 ft 439 kts 340°
2026-05-06 02:34 34.37638 -118.64924 36018 ft 440 kts 339°
2026-05-06 02:34 34.40490 -118.66314 36002 ft 443 kts 340°
2026-05-06 02:35 34.46061 -118.69445 36019 ft 439 kts 333°
2026-05-06 02:35 34.51273 -118.73217 36020 ft 435 kts 331°
2026-05-06 02:36 34.56444 -118.77037 36022 ft 434 kts 332°
2026-05-06 02:36 34.61632 -118.80781 36026 ft 434 kts 333°
2026-05-06 02:37 34.66831 -118.84482 36033 ft 433 kts 334°
2026-05-06 02:37 34.72047 -118.88185 36035 ft 435 kts 334°
2026-05-06 02:38 34.77282 -118.91907 36039 ft 436 kts 333°
2026-05-06 02:38 34.82525 -118.95643 36051 ft 438 kts 333°
2026-05-06 02:39 34.87782 -118.99397 36041 ft 438 kts 334°
2026-05-06 02:39 34.93030 -119.03149 36041 ft 437 kts 334°
2026-05-06 02:40 34.97389 -119.06271 36030 ft 437 kts 334°
2026-05-06 02:40 35.02633 -119.10031 36038 ft 437 kts 334°
2026-05-06 02:41 35.07873 -119.13793 36039 ft 437 kts 334°
2026-05-06 02:41 35.13108 -119.17557 36036 ft 436 kts 334°
2026-05-06 02:42 35.18335 -119.21322 36031 ft 435 kts 335°
2026-05-06 02:42 35.23545 -119.25080 36014 ft 435 kts 335°
2026-05-06 02:43 35.28747 -119.28837 36019 ft 434 kts 335°
2026-05-06 02:43 35.33937 -119.32592 36027 ft 433 kts 335°
2026-05-06 02:44 35.39110 -119.36340 36024 ft 432 kts 336°
2026-05-06 02:44 35.44278 -119.40090 36032 ft 431 kts 336°
2026-05-06 02:45 35.49440 -119.43841 36032 ft 431 kts 336°
2026-05-06 02:45 35.54600 -119.47598 36018 ft 431 kts 335°
2026-05-06 02:46 35.59466 -119.52023 36036 ft 439 kts 327°
2026-05-06 02:46 35.64127 -119.56904 36019 ft 440 kts 326°
2026-05-06 02:47 35.68801 -119.61771 36034 ft 440 kts 327°
2026-05-06 02:47 35.73507 -119.66611 36010 ft 441 kts 327°
2026-05-06 02:48 35.78221 -119.71445 36036 ft 441 kts 327°
2026-05-06 02:48 35.82941 -119.76297 36036 ft 442 kts 327°
2026-05-06 02:49 35.87667 -119.81163 36023 ft 443 kts 327°
2026-05-06 02:49 35.92371 -119.86094 36031 ft 445 kts 324°
2026-05-06 02:50 35.96872 -119.91386 36038 ft 448 kts 322°
2026-05-06 02:50 36.01325 -119.96772 36041 ft 448 kts 323°
2026-05-06 02:51 36.05806 -120.02144 36030 ft 449 kts 323°
2026-05-06 02:51 36.10299 -120.07496 36047 ft 448 kts 323°
2026-05-06 02:52 36.14795 -120.12848 36027 ft 448 kts 323°
2026-05-06 02:52 36.19279 -120.18195 36046 ft 447 kts 323°
2026-05-06 02:53 36.23713 -120.23494 36043 ft 446 kts 323°
2026-05-06 02:53 36.25989 -120.26214 35700 ft 451 kts 323°
2026-05-06 02:53 36.28215 -120.28876 35180 ft 450 kts 323°
2026-05-06 02:53 36.30465 -120.31573 34567 ft 450 kts 324°
2026-05-06 02:54 36.32717 -120.34276 33919 ft 451 kts 324°
2026-05-06 02:54 36.35004 -120.37021 33173 ft 452 kts 324°
2026-05-06 02:54 36.37233 -120.39698 32471 ft 452 kts 324°
2026-05-06 02:54 36.39485 -120.42407 31896 ft 449 kts 323°
2026-05-06 02:55 36.41715 -120.45095 31404 ft 445 kts 323°
2026-05-06 02:55 36.43923 -120.47759 30931 ft 440 kts 323°
2026-05-06 02:55 36.46110 -120.50397 30456 ft 437 kts 323°
2026-05-06 02:55 36.48284 -120.53018 29971 ft 433 kts 323°
2026-05-06 02:56 36.50434 -120.55612 29433 ft 429 kts 323°
2026-05-06 02:56 36.52563 -120.58184 28923 ft 425 kts 323°
2026-05-06 02:56 36.54682 -120.60719 28435 ft 420 kts 324°
2026-05-06 02:56 36.56836 -120.63142 27954 ft 414 kts 326°
2026-05-06 02:57 36.58988 -120.65493 27488 ft 410 kts 326°
2026-05-06 02:57 36.61129 -120.67819 27015 ft 406 kts 326°
2026-05-06 02:57 36.63242 -120.70129 26555 ft 403 kts 326°
2026-05-06 02:57 36.65330 -120.72426 26109 ft 399 kts 326°
2026-05-06 02:58 36.67402 -120.74718 25666 ft 397 kts 325°
2026-05-06 02:58 36.69456 -120.76997 25197 ft 394 kts 325°
2026-05-06 02:58 36.71498 -120.79265 24749 ft 392 kts 325°
2026-05-06 02:58 36.73524 -120.81519 24301 ft 390 kts 325°
2026-05-06 02:59 36.75545 -120.83768 23833 ft 389 kts 324°
2026-05-06 02:59 36.77557 -120.86009 23323 ft 387 kts 324°
2026-05-06 02:59 36.79557 -120.88230 22825 ft 384 kts 324°
2026-05-06 02:59 36.81548 -120.90436 22362 ft 381 kts 324°
2026-05-06 03:00 36.83519 -120.92619 21901 ft 377 kts 324°
2026-05-06 03:00 36.85474 -120.94786 21458 ft 374 kts 324°
2026-05-06 03:00 36.87413 -120.96937 21010 ft 371 kts 324°
2026-05-06 03:00 36.89336 -120.99072 20588 ft 368 kts 324°
2026-05-06 03:01 36.91242 -121.01190 20167 ft 366 kts 324°
2026-05-06 03:01 36.93139 -121.03299 19751 ft 363 kts 323°
2026-05-06 03:01 36.95018 -121.05390 19318 ft 361 kts 323°
2026-05-06 03:01 36.96887 -121.07472 18908 ft 359 kts 323°
2026-05-06 03:02 36.98746 -121.09544 18472 ft 358 kts 323°
2026-05-06 03:02 37.00607 -121.11618 17928 ft 358 kts 323°
2026-05-06 03:02 37.02455 -121.13681 17471 ft 355 kts 323°
2026-05-06 03:02 37.04292 -121.15733 17033 ft 353 kts 323°
2026-05-06 03:03 37.06113 -121.17769 16604 ft 350 kts 323°
2026-05-06 03:03 37.07920 -121.19791 16181 ft 347 kts 322°
2026-05-06 03:03 37.09707 -121.21792 15773 ft 343 kts 323°
2026-05-06 03:03 37.11479 -121.23776 15377 ft 340 kts 323°
2026-05-06 03:04 37.13238 -121.25747 14956 ft 338 kts 322°
2026-05-06 03:04 37.14978 -121.27737 14548 ft 338 kts 322°
2026-05-06 03:04 37.16702 -121.29739 14140 ft 339 kts 321°
2026-05-06 03:04 37.18408 -121.31728 13718 ft 340 kts 321°
2026-05-06 03:05 37.20138 -121.33746 13258 ft 338 kts 321°
2026-05-06 03:05 37.21853 -121.35747 12820 ft 336 kts 321°
2026-05-06 03:05 37.23563 -121.37740 12388 ft 333 kts 321°
2026-05-06 03:05 37.25253 -121.39710 11982 ft 330 kts 321°
2026-05-06 03:06 37.26930 -121.41665 11585 ft 328 kts 321°
2026-05-06 03:06 37.28597 -121.43610 11190 ft 326 kts 321°
2026-05-06 03:06 37.30254 -121.45543 10797 ft 324 kts 321°
2026-05-06 03:06 37.31900 -121.47465 10391 ft 323 kts 321°
2026-05-06 03:07 37.33539 -121.49379 9997 ft 321 kts 321°
2026-05-06 03:07 37.35152 -121.51267 9891 ft 309 kts 321°
2026-05-06 03:07 37.36693 -121.53072 9787 ft 298 kts 321°
2026-05-06 03:07 37.38177 -121.54802 9694 ft 285 kts 322°
2026-05-06 03:08 37.39623 -121.56453 9558 ft 277 kts 322°
2026-05-06 03:08 37.41045 -121.58071 9265 ft 275 kts 322°
2026-05-06 03:08 37.42408 -121.59769 8935 ft 279 kts 308°
2026-05-06 03:08 37.43266 -121.61965 8701 ft 280 kts 295°
2026-05-06 03:09 37.43980 -121.64238 8457 ft 278 kts 295°
2026-05-06 03:09 37.44694 -121.66505 8102 ft 279 kts 295°
2026-05-06 03:09 37.45419 -121.68767 7804 ft 278 kts 295°
2026-05-06 03:09 37.46151 -121.71015 7514 ft 275 kts 295°
2026-05-06 03:10 37.46876 -121.73224 7126 ft 272 kts 295°
2026-05-06 03:10 37.47599 -121.75408 6732 ft 269 kts 295°
2026-05-06 03:10 37.48320 -121.77577 6375 ft 269 kts 295°
2026-05-06 03:10 37.49038 -121.79727 6177 ft 266 kts 295°
2026-05-06 03:11 37.49755 -121.81877 5874 ft 266 kts 294°
2026-05-06 03:11 37.50472 -121.84021 5610 ft 265 kts 294°
2026-05-06 03:11 37.51182 -121.86147 5333 ft 262 kts 294°
2026-05-06 03:11 37.51889 -121.88266 5048 ft 262 kts 294°
2026-05-06 03:12 37.52588 -121.90360 4848 ft 258 kts 293°
2026-05-06 03:12 37.53285 -121.92446 4539 ft 258 kts 292°
2026-05-06 03:12 37.53976 -121.94521 4319 ft 255 kts 292°
2026-05-06 03:12 37.54661 -121.96577 4150 ft 255 kts 292°
2026-05-06 03:13 37.55335 -121.98603 4107 ft 246 kts 292°
2026-05-06 03:13 37.56155 -122.00448 4108 ft 240 kts 307°
2026-05-06 03:13 37.57241 -122.02043 3946 ft 239 kts 310°
2026-05-06 03:13 37.58327 -122.03604 3653 ft 234 kts 308°
2026-05-06 03:14 37.59361 -122.05144 3354 ft 228 kts 308°
2026-05-06 03:14 37.60350 -122.06636 3060 ft 221 kts 307°
2026-05-06 03:14 37.61318 -122.08100 2753 ft 213 kts 308°
2026-05-06 03:14 37.62262 -122.09526 2465 ft 205 kts 308°
2026-05-06 03:15 37.63164 -122.10887 2183 ft 199 kts 308°
2026-05-06 03:15 37.64030 -122.12195 1912 ft 187 kts 308°
2026-05-06 03:15 37.64824 -122.13392 1683 ft 173 kts 307°
2026-05-06 03:15 37.65569 -122.14516 1454 ft 159 kts 307°
2026-05-06 03:16 37.66239 -122.15527 1246 ft 145 kts 307°
2026-05-06 03:16 37.66871 -122.16482 1057 ft 144 kts 308°
2026-05-06 03:16 37.67520 -122.17461 860 ft 146 kts 308°
2026-05-06 03:16 37.68171 -122.18442 671 ft 145 kts 307°
2026-05-06 03:17 37.68819 -122.19420 474 ft 146 kts 307°
2026-05-06 03:17 37.69471 -122.20399 263 ft 146 kts 307°
2026-05-06 03:17 37.70118 -122.21378 54 ft 145 kts 306°
2026-05-06 03:17 37.70736 -122.22311 8 ft 123 kts 310°
2026-05-06 03:18 37.71190 -122.22989 8 ft 79 kts 310°
2026-05-06 03:18 37.71459 -122.23393 7 ft 51 kts 310°
2026-05-06 03:18 37.71676 -122.23716 8 ft 45 kts 310°
2026-05-06 03:18 37.71834 -122.23952 9 ft 22 kts 310°
2026-05-06 03:19 37.71914 -122.24046 8 ft 13 kts 355°
2026-05-06 03:19 37.71981 -122.23992 9 ft 3 kts 40°
2026-05-06 03:19 37.71981 -122.23991 9 ft 0 kts 40°
2026-05-06 03:20 37.71986 -122.23986 8 ft 2 kts 43°
2026-05-06 03:20 37.72001 -122.23945 8 ft 8 kts 91°
2026-05-06 03:20 37.71963 -122.23876 8 ft 13 kts 130°
2026-05-06 03:21 37.71891 -122.23756 8 ft 20 kts 121°
2026-05-06 03:21 37.71817 -122.23601 9 ft 20 kts 122°
2026-05-06 03:21 37.71743 -122.23451 8 ft 20 kts 122°
2026-05-06 03:21 37.71661 -122.23315 8 ft 19 kts 130°
2026-05-06 03:22 37.71575 -122.23189 9 ft 19 kts 130°
2026-05-06 03:22 37.71495 -122.23067 8 ft 19 kts 130°
2026-05-06 03:22 37.71394 -122.22919 8 ft 26 kts 129°
2026-05-06 03:22 37.71270 -122.22731 8 ft 29 kts 130°
2026-05-06 03:23 37.71143 -122.22541 8 ft 26 kts 129°
2026-05-06 03:23 37.71119 -122.22416 8 ft 15 kts 46°
2026-05-06 03:23 37.71201 -122.22329 10 ft 16 kts 40°
2026-05-06 03:23 37.71298 -122.22227 8 ft 19 kts 40°
2026-05-06 03:24 37.71388 -122.22105 9 ft 19 kts 50°
2026-05-06 03:24 37.71469 -122.21990 8 ft 13 kts 46°
2026-05-06 03:24 37.71542 -122.22007 8 ft 13 kts 308°
2026-05-06 03:24 37.71599 -122.22055 8 ft 10 kts
2026-05-06 03:25 37.71655 -122.22022 9 ft 9 kts 344°
2026-05-06 03:25 37.71689 -122.22060 9 ft 4 kts 319°
2026-05-06 03:25 37.71700 -122.22072 9 ft 0 kts 318°